This is the latest recevied weather packets stored in our database for station/object K1WJY. If no packets are shown the sender has not sent any weather packets the latest 10 day(s).
| Time | Temp. | Humidity | Pressure | Rain* | Wind** | Luminosity | Snow |
|---|---|---|---|---|---|---|---|
| 1787687301 | 26.11° C | 56% | 1013.6 hPa | 0 mm | - | 456 W/m² | - |
| 1787686997 | 26.67° C | 56% | 1013.6 hPa | 0 mm | - | 469 W/m² | - |
| 1787686693 | 26.67° C | 57% | 1013.7 hPa | 0 mm | - | 480 W/m² | - |
| 1787686392 | 26.67° C | 61% | 1013.6 hPa | 0 mm | - | 507 W/m² | - |
| 1787686089 | 26.67° C | 59% | 1013.6 hPa | 0 mm | - | 511 W/m² | - |
| 1787685783 | 26.67° C | 63% | 1013.7 hPa | 0 mm | - | 551 W/m² | - |
| 1787685479 | 26.67° C | 64% | 1013.6 hPa | 0 mm | - | 557 W/m² | - |
| 1787685173 | 26.67° C | 64% | 1013.6 hPa | 0 mm | - | 578 W/m² | - |
| 1787684869 | 26.67° C | 64% | 1013.5 hPa | 0 mm | - | 579 W/m² | - |
| 1787684568 | 26.11° C | 62% | 1013.4 hPa | 0 mm | - | 595 W/m² | - |
| 1787684263 | 25.56° C | 67% | 1013.4 hPa | 0 mm | - | 588 W/m² | - |
| 1787683960 | 26.11° C | 67% | 1013.7 hPa | 0 mm | - | 308 W/m² | - |
| 1787683658 | 26.11° C | 68% | 1013.9 hPa | 0 mm | - | 590 W/m² | - |
| 1787683353 | 26.11° C | 69% | 1013.6 hPa | 0 mm | - | 620 W/m² | - |
| 1787683050 | 26.67° C | 70% | 1013.8 hPa | 0 mm | - | 629 W/m² | - |
| 1787682746 | 26.11° C | 70% | 1013.7 hPa | 0 mm | - | 619 W/m² | - |
| 1787682442 | 25.56° C | 71% | 1013.9 hPa | 0 mm | - | 622 W/m² | - |
| 1787682137 | 25.56° C | 70% | 1013.8 hPa | 0 mm | - | 615 W/m² | - |
| 1787681833 | 26.11° C | 68% | 1013.8 hPa | 0 mm | - | 619 W/m² | - |
| 1787681532 | 26.11° C | 69% | 1014 hPa | 0 mm | - | 627 W/m² | - |
| 1787681227 | 26.11° C | 67% | 1013.9 hPa | 0 mm | - | 638 W/m² | - |
| 1787680923 | 26.11° C | 67% | 1014.1 hPa | 0 mm | - | 633 W/m² | - |
| 1787680617 | 26.11° C | 67% | 1014.1 hPa | 0 mm | - | 648 W/m² | - |
| 1787680316 | 26.11° C | 70% | 1014.3 hPa | 0 mm | - | 655 W/m² | - |
| 1787680015 | 26.11° C | 70% | 1014.1 hPa | 0 mm | - | 668 W/m² | - |
* Rain latest hour (hover to see other rain measurements)
** Current wind speed in m/s (hover to see current wind gust speed)